NRT121 KGTF-KGEG

Flight info

Callsign NRT121
Flight time 0h 47m
Altitude 32000
Route MLP HILIE3
Aircraft E75L/M-SDE3GILORVW/S

Departure

Time 2026-05-08 14:45
Airport Great Falls International Airport (KGTF)

Arrival

Time 2026-05-08 15:32
Airport Spokane International Airport (KGEG)
Time Latitude Longitude Altitude Speed Heading
2026-05-08 14:16 47.48283 -111.35827 3668 ft 0 kts 183°
2026-05-08 14:36 47.48291 -111.35826 3668 ft 2 kts 183°
2026-05-08 14:37 47.48306 -111.35825 3667 ft 2 kts 182°
2026-05-08 14:37 47.48322 -111.35824 3667 ft 2 kts 182°
2026-05-08 14:37 47.48336 -111.35822 3667 ft 2 kts 204°
2026-05-08 14:37 47.48349 -111.35809 3667 ft 2 kts 228°
2026-05-08 14:38 47.48356 -111.35789 3666 ft 2 kts 253°
2026-05-08 14:38 47.48358 -111.35776 3666 ft 0 kts 270°
2026-05-08 14:38 47.48358 -111.35765 3666 ft 0 kts 273°
2026-05-08 14:41 47.48358 -111.35767 3666 ft 0 kts 273°
2026-05-08 14:41 47.48358 -111.35775 3666 ft 1 kts 272°
2026-05-08 14:41 47.48358 -111.35795 3666 ft 2 kts 272°
2026-05-08 14:41 47.48360 -111.35834 3667 ft 4 kts 276°
2026-05-08 14:42 47.48384 -111.35894 3667 ft 8 kts 313°
2026-05-08 14:42 47.48448 -111.35882 3667 ft 12 kts 42°
2026-05-08 14:42 47.48518 -111.35789 3666 ft 14 kts 42°
2026-05-08 14:42 47.48604 -111.35676 3664 ft 17 kts 43°
2026-05-08 14:43 47.48696 -111.35542 3661 ft 20 kts 46°
2026-05-08 14:43 47.48791 -111.35402 3654 ft 18 kts 44°
2026-05-08 14:43 47.48853 -111.35312 3648 ft 11 kts 43°
2026-05-08 14:43 47.48923 -111.35326 3647 ft 10 kts 314°
2026-05-08 14:44 47.48951 -111.35399 3649 ft 6 kts 253°
2026-05-08 14:44 47.48931 -111.35436 3651 ft 3 kts 223°
2026-05-08 14:44 47.48851 -111.35553 3658 ft 48 kts 226°
2026-05-08 14:44 47.48431 -111.36169 3669 ft 120 kts 225°
2026-05-08 14:45 47.47730 -111.37219 3919 ft 156 kts 226°
2026-05-08 14:45 47.46981 -111.38409 4632 ft 165 kts 227°
2026-05-08 14:45 47.46174 -111.39634 5253 ft 174 kts 225°
2026-05-08 14:45 47.45224 -111.40961 5530 ft 206 kts 223°
2026-05-08 14:46 47.44121 -111.42527 5893 ft 234 kts 225°
2026-05-08 14:46 47.43074 -111.44367 6691 ft 241 kts 248°
2026-05-08 14:46 47.42850 -111.46851 7309 ft 257 kts 277°
2026-05-08 14:46 47.43060 -111.49532 7929 ft 271 kts 275°
2026-05-08 14:47 47.43203 -111.52338 8682 ft 279 kts 274°
2026-05-08 14:47 47.43308 -111.55194 9559 ft 281 kts 274°
2026-05-08 14:47 47.43392 -111.58059 10400 ft 283 kts 274°
2026-05-08 14:47 47.43467 -111.60925 11123 ft 288 kts 274°
2026-05-08 14:48 47.43539 -111.63917 11731 ft 297 kts 274°
2026-05-08 14:48 47.43611 -111.67004 12301 ft 308 kts 274°
2026-05-08 14:48 47.43683 -111.70174 12951 ft 314 kts 274°
2026-05-08 14:48 47.43755 -111.73421 13700 ft 317 kts 274°
2026-05-08 14:49 47.43825 -111.76636 14470 ft 318 kts 274°
2026-05-08 14:49 47.43895 -111.79888 15243 ft 318 kts 275°
2026-05-08 14:49 47.43964 -111.83144 15961 ft 320 kts 275°
2026-05-08 14:49 47.44032 -111.86380 16653 ft 322 kts 275°
2026-05-08 14:50 47.44101 -111.89699 17310 ft 324 kts 275°
2026-05-08 14:50 47.44169 -111.93021 17965 ft 326 kts 275°
2026-05-08 14:50 47.44236 -111.96345 18609 ft 329 kts 275°
2026-05-08 14:50 47.44302 -111.99707 19240 ft 331 kts 275°
2026-05-08 14:51 47.44369 -112.03095 19892 ft 333 kts 275°
2026-05-08 14:51 47.44434 -112.06512 20531 ft 335 kts 275°
2026-05-08 14:51 47.44499 -112.09950 21154 ft 337 kts 275°
2026-05-08 14:51 47.44564 -112.13404 21761 ft 338 kts 275°
2026-05-08 14:52 47.44632 -112.16866 22338 ft 341 kts 276°
2026-05-08 14:52 47.44754 -112.23835 23191 ft 346 kts 275°
2026-05-08 14:52 47.44815 -112.27389 23667 ft 350 kts 275°
2026-05-08 14:53 47.44875 -112.30948 24188 ft 352 kts 275°
2026-05-08 14:53 47.44936 -112.34583 24687 ft 354 kts 275°
2026-05-08 14:53 47.44996 -112.38223 25221 ft 356 kts 276°
2026-05-08 14:53 47.45054 -112.41838 25702 ft 358 kts 276°
2026-05-08 14:54 47.45113 -112.45531 26145 ft 361 kts 276°
2026-05-08 14:54 47.45170 -112.49203 26570 ft 364 kts 276°
2026-05-08 14:54 47.45227 -112.52980 27009 ft 366 kts 276°
2026-05-08 14:54 47.45282 -112.56686 27432 ft 368 kts 276°
2026-05-08 14:55 47.45337 -112.60473 27874 ft 370 kts 276°
2026-05-08 14:55 47.45392 -112.64303 28267 ft 372 kts 276°
2026-05-08 14:55 47.45445 -112.68117 28663 ft 375 kts 276°
2026-05-08 14:55 47.45497 -112.72006 29042 ft 378 kts 276°
2026-05-08 14:56 47.45549 -112.75919 29447 ft 380 kts 276°
2026-05-08 14:56 47.45599 -112.79805 29863 ft 381 kts 276°
2026-05-08 14:56 47.45648 -112.83733 30264 ft 383 kts 276°
2026-05-08 14:56 47.45696 -112.87650 30627 ft 385 kts 276°
2026-05-08 14:57 47.45744 -112.91601 30968 ft 388 kts 276°
2026-05-08 14:57 47.45789 -112.95587 31329 ft 390 kts 276°
2026-05-08 14:57 47.45834 -112.99613 31655 ft 393 kts 276°
2026-05-08 14:57 47.45877 -113.03621 32016 ft 392 kts 276°
2026-05-08 14:58 47.45919 -113.07593 32100 ft 394 kts 276°
2026-05-08 14:58 47.46001 -113.15839 32115 ft 412 kts 276°
2026-05-08 14:59 47.46080 -113.24411 32117 ft 422 kts 275°
2026-05-08 14:59 47.46186 -113.37365 32112 ft 422 kts 275°
2026-05-08 15:00 47.46250 -113.46026 32111 ft 423 kts 275°
2026-05-08 15:00 47.46307 -113.54698 32110 ft 424 kts 275°
2026-05-08 15:01 47.46357 -113.63322 32109 ft 423 kts 275°
2026-05-08 15:01 47.46401 -113.71965 32109 ft 424 kts 274°
2026-05-08 15:02 47.46438 -113.80632 32106 ft 424 kts 274°
2026-05-08 15:02 47.46469 -113.89284 32109 ft 422 kts 274°
2026-05-08 15:03 47.46493 -113.97929 32106 ft 421 kts 274°
2026-05-08 15:03 47.46511 -114.06519 32101 ft 422 kts 274°
2026-05-08 15:04 47.46522 -114.15173 32094 ft 421 kts 274°
2026-05-08 15:04 47.46527 -114.23813 32088 ft 422 kts 274°
2026-05-08 15:05 47.46526 -114.32432 32093 ft 421 kts 274°
2026-05-08 15:05 47.46516 -114.40999 32015 ft 406 kts 274°
2026-05-08 15:06 47.46510 -114.45060 31387 ft 394 kts 274°
2026-05-08 15:06 47.46503 -114.49078 30365 ft 393 kts 274°
2026-05-08 15:06 47.46495 -114.53100 29226 ft 393 kts 274°
2026-05-08 15:06 47.46485 -114.57107 28259 ft 391 kts 274°
2026-05-08 15:07 47.46474 -114.61070 28142 ft 396 kts 273°
2026-05-08 15:07 47.46461 -114.65231 28114 ft 406 kts 272°
2026-05-08 15:07 47.46428 -114.73502 28103 ft 396 kts 272°
2026-05-08 15:08 47.46392 -114.81563 28103 ft 392 kts 272°
2026-05-08 15:08 47.46351 -114.89628 28105 ft 393 kts 273°
2026-05-08 15:09 47.46304 -114.97662 28091 ft 393 kts 273°
2026-05-08 15:09 47.46251 -115.05745 28089 ft 394 kts 272°
2026-05-08 15:10 47.46191 -115.13805 28098 ft 393 kts 272°
2026-05-08 15:10 47.46127 -115.21880 28096 ft 394 kts 272°
2026-05-08 15:11 47.46057 -115.29895 28103 ft 393 kts 272°
2026-05-08 15:11 47.45981 -115.37875 28078 ft 375 kts 272°
2026-05-08 15:12 47.45943 -115.41590 27935 ft 339 kts 272°
2026-05-08 15:12 47.45909 -115.44865 27640 ft 311 kts 273°
2026-05-08 15:12 47.45877 -115.48001 27299 ft 302 kts 273°
2026-05-08 15:12 47.45845 -115.51042 26924 ft 294 kts 273°
2026-05-08 15:13 47.45812 -115.54024 26522 ft 288 kts 273°
2026-05-08 15:13 47.45780 -115.56997 26081 ft 301 kts 274°
2026-05-08 15:13 47.45762 -115.60239 25121 ft 335 kts 273°
2026-05-08 15:13 47.45724 -115.63790 24102 ft 361 kts 271°
2026-05-08 15:14 47.45863 -115.67453 23360 ft 353 kts 277°
2026-05-08 15:14 47.46099 -115.71101 22953 ft 364 kts 277°
2026-05-08 15:14 47.46333 -115.74812 22535 ft 366 kts 277°
2026-05-08 15:14 47.46565 -115.78539 22119 ft 364 kts 277°
2026-05-08 15:15 47.46795 -115.82237 21710 ft 360 kts 277°
2026-05-08 15:15 47.47020 -115.85910 21316 ft 359 kts 277°
2026-05-08 15:15 47.47243 -115.89539 20920 ft 356 kts 277°
2026-05-08 15:15 47.47462 -115.93137 20497 ft 356 kts 277°
2026-05-08 15:16 47.47681 -115.96744 20101 ft 354 kts 276°
2026-05-08 15:16 47.47898 -116.00347 19704 ft 352 kts 276°
2026-05-08 15:16 47.48113 -116.03936 19323 ft 351 kts 276°
2026-05-08 15:16 47.48327 -116.07519 18933 ft 349 kts 276°
2026-05-08 15:17 47.48538 -116.11075 18548 ft 347 kts 276°
2026-05-08 15:17 47.48747 -116.14613 18166 ft 346 kts 276°
2026-05-08 15:17 47.48953 -116.18129 17784 ft 344 kts 276°
2026-05-08 15:17 47.49157 -116.21617 17408 ft 342 kts 276°
2026-05-08 15:18 47.49360 -116.25106 17035 ft 341 kts 276°
2026-05-08 15:18 47.49560 -116.28571 16663 ft 339 kts 276°
2026-05-08 15:18 47.49759 -116.32026 16284 ft 338 kts 276°
2026-05-08 15:18 47.49956 -116.35480 15904 ft 337 kts 275°
2026-05-08 15:19 47.50150 -116.38891 15537 ft 336 kts 275°
2026-05-08 15:19 47.50344 -116.42313 15169 ft 334 kts 275°
2026-05-08 15:19 47.50536 -116.45727 14803 ft 333 kts 275°
2026-05-08 15:19 47.50726 -116.49121 14433 ft 332 kts 275°
2026-05-08 15:20 47.50914 -116.52505 14061 ft 330 kts 275°
2026-05-08 15:20 47.51101 -116.55874 13693 ft 329 kts 275°
2026-05-08 15:20 47.51286 -116.59238 13324 ft 328 kts 275°
2026-05-08 15:20 47.51469 -116.62575 12967 ft 326 kts 275°
2026-05-08 15:21 47.51649 -116.65868 12617 ft 325 kts 274°
2026-05-08 15:21 47.51830 -116.69202 12256 ft 323 kts 274°
2026-05-08 15:21 47.52008 -116.72506 11906 ft 322 kts 274°
2026-05-08 15:21 47.52182 -116.75753 11549 ft 320 kts 274°
2026-05-08 15:22 47.52354 -116.78988 11195 ft 313 kts 274°
2026-05-08 15:22 47.52692 -116.82123 11057 ft 305 kts 291°
2026-05-08 15:22 47.53949 -116.84623 11092 ft 309 kts 321°
2026-05-08 15:22 47.55752 -116.86282 11134 ft 306 kts 328°
2026-05-08 15:23 47.57553 -116.87839 10959 ft 289 kts 326°
2026-05-08 15:23 47.59065 -116.89635 10430 ft 281 kts 311°
2026-05-08 15:23 47.60313 -116.91866 9772 ft 284 kts 304°
2026-05-08 15:23 47.61414 -116.94253 9129 ft 285 kts 301°
2026-05-08 15:24 47.62455 -116.96743 8552 ft 284 kts 299°
2026-05-08 15:24 47.63449 -116.99231 8046 ft 281 kts 298°
2026-05-08 15:24 47.64422 -117.01723 7629 ft 276 kts 297°
2026-05-08 15:24 47.65379 -117.04202 7535 ft 281 kts 297°
2026-05-08 15:25 47.66349 -117.06730 7523 ft 280 kts 297°
2026-05-08 15:25 47.67302 -117.09222 7503 ft 278 kts 297°
2026-05-08 15:25 47.68229 -117.11646 7448 ft 259 kts 297°
2026-05-08 15:25 47.69084 -117.13886 7399 ft 241 kts 297°
2026-05-08 15:26 47.69891 -117.16003 7220 ft 231 kts 297°
2026-05-08 15:26 47.70677 -117.18070 6890 ft 229 kts 297°
2026-05-08 15:26 47.71453 -117.20110 6492 ft 231 kts 297°
2026-05-08 15:26 47.72192 -117.22210 6097 ft 229 kts 287°
2026-05-08 15:27 47.72592 -117.24445 5740 ft 216 kts 279°
2026-05-08 15:27 47.72878 -117.26517 5467 ft 195 kts 279°
2026-05-08 15:27 47.73098 -117.28439 5043 ft 186 kts 274°
2026-05-08 15:27 47.73248 -117.30321 4482 ft 187 kts 274°
2026-05-08 15:28 47.73394 -117.32238 3982 ft 191 kts 274°
2026-05-08 15:28 47.73537 -117.34199 3935 ft 191 kts 271°
2026-05-08 15:28 47.73320 -117.36115 3932 ft 187 kts 243°
2026-05-08 15:28 47.72532 -117.37601 3922 ft 185 kts 226°
2026-05-08 15:29 47.71642 -117.38989 3901 ft 186 kts 225°
2026-05-08 15:29 47.70741 -117.40365 3897 ft 186 kts 224°
2026-05-08 15:29 47.69830 -117.41741 3896 ft 186 kts 224°
2026-05-08 15:29 47.68931 -117.43098 3895 ft 184 kts 224°
2026-05-08 15:30 47.68090 -117.44366 3744 ft 161 kts 224°
2026-05-08 15:30 47.67341 -117.45495 3513 ft 145 kts 224°
2026-05-08 15:30 47.66674 -117.46499 3313 ft 131 kts 223°
2026-05-08 15:30 47.66047 -117.47441 3151 ft 127 kts 223°
2026-05-08 15:31 47.65434 -117.48363 3000 ft 128 kts 224°
2026-05-08 15:31 47.64803 -117.49314 2825 ft 129 kts 223°
2026-05-08 15:31 47.64169 -117.50243 2671 ft 129 kts 224°
2026-05-08 15:31 47.63537 -117.51193 2485 ft 130 kts 225°
2026-05-08 15:32 47.62904 -117.52152 2340 ft 127 kts 225°
2026-05-08 15:32 47.62353 -117.52982 2355 ft 96 kts 225°
2026-05-08 15:32 47.61991 -117.53526 2363 ft 57 kts 226°
2026-05-08 15:32 47.61840 -117.53753 2368 ft 16 kts 225°
2026-05-08 15:33 47.61811 -117.53892 2369 ft 11 kts 269°
2026-05-08 15:33 47.61813 -117.54018 2369 ft 11 kts 271°
2026-05-08 15:33 47.61813 -117.54041 2369 ft 0 kts 272°
2026-05-08 15:33 47.61814 -117.54052 2369 ft 1 kts 273°
2026-05-08 15:34 47.61821 -117.54088 2368 ft 6 kts 301°
2026-05-08 15:34 47.61875 -117.54105 2367 ft 12 kts 37°
2026-05-08 15:34 47.61947 -117.54002 2366 ft 16 kts 46°
2026-05-08 15:34 47.62035 -117.53867 2365 ft 19 kts 45°
2026-05-08 15:35 47.62129 -117.53726 2362 ft 16 kts 46°
2026-05-08 15:35 47.62199 -117.53717 2362 ft 11 kts 321°
2026-05-08 15:35 47.62254 -117.53800 2362 ft 9 kts 308°
2026-05-08 15:35 47.62263 -117.53887 2363 ft 8 kts 269°
2026-05-08 15:36 47.62263 -117.53963 2364 ft 6 kts 272°
2026-05-08 15:36 47.62265 -117.54024 2365 ft 5 kts 274°
2026-05-08 15:36 47.62269 -117.54088 2365 ft 6 kts 276°
2026-05-08 15:36 47.62295 -117.54137 2365 ft 7 kts
2026-05-08 15:37 47.62333 -117.54136 2365 ft 0 kts 360°